SB KEPS @ AMSAT $ORB13045.O Orbital Elements 13045.OSCAR
HR AMSAT ORBITAL ELEMENTS FOR OSCAR SATELLITES FROM WA5QGD FORT WORTH,TX February 14, 2013 BID: ORB13045.O TO ALL RADIO AMATEURS BT
Satellite: AO-07 Catalog number: 07530 Epoch time: 13045.61907463 Element set: 607 Inclination: 101.4231 deg RA of node: 039.6180 deg Eccentricity: 0.0012045 Arg of perigee: 166.3111 deg Mean anomaly: 306.6441 deg Mean motion: 12.53594310 rev/day Decay rate: 4.0e-08 rev/day^2 Epoch rev: 75042 Checksum: 245
Satellite: FO-29 Catalog number: 24278 Epoch time: 13045.44509092 Element set: 48 Inclination: 098.5747 deg RA of node: 120.3455 deg Eccentricity: 0.0351056 Arg of perigee: 122.0920 deg Mean anomaly: 241.4810 deg Mean motion: 13.52996700 rev/day Decay rate: 9.0e-08 rev/day^2 Epoch rev: 81471 Checksum: 292
Satellite: SO-33 Catalog number: 25509 Epoch time: 13044.40852670 Element set: 432 Inclination: 031.4347 deg RA of node: 048.3736 deg Eccentricity: 0.0351715 Arg of perigee: 154.4146 deg Mean anomaly: 353.9143 deg Mean motion: 14.28962960 rev/day Decay rate: 1.20e-06 rev/day^2 Epoch rev: 74717 Checksum: 294
Satellite: RS-22 Catalog number: 27939 Epoch time: 13045.12197962 Element set: 162 Inclination: 097.7983 deg RA of node: 239.3916 deg Eccentricity: 0.0012573 Arg of perigee: 215.0164 deg Mean anomaly: 145.0199 deg Mean motion: 14.64319257 rev/day Decay rate: 3.51e-06 rev/day^2 Epoch rev: 50128 Checksum: 312
Satellite: VO-52 Catalog number: 28650 Epoch time: 13045.84345684 Element set: 344 Inclination: 097.5758 deg RA of node: 070.6988 deg Eccentricity: 0.0025492 Arg of perigee: 326.1382 deg Mean anomaly: 033.8180 deg Mean motion: 14.83570031 rev/day Decay rate: 1.194e-05 rev/day^2 Epoch rev: 42094 Checksum: 318
Satellite: HO-68 Catalog number: 36122 Epoch time: 13045.83057529 Element set: 284 Inclination: 100.3251 deg RA of node: 105.8963 deg Eccentricity: 0.0007162 Arg of perigee: 275.2287 deg Mean anomaly: 084.8009 deg Mean motion: 13.16301849 rev/day Decay rate: -4.4e-07 rev/day^2 Epoch rev: 15231 Checksum: 284
/EX SB KEPS @ AMSAT $ORB13045.D Orbital Elements 13045.MICROS
HR AMSAT ORBITAL ELEMENTS FOR THE MICROSATS FROM WA5QGD FORT WORTH,TX February 14, 2013 BID: ORB13045.D TO ALL RADIO AMATEURS BT
Satellite: UO-11 Catalog number: 14781 Epoch time: 13044.58782369 Element set: 101 Inclination: 097.9193 deg RA of node: 107.5823 deg Eccentricity: 0.0007932 Arg of perigee: 337.3899 deg Mean anomaly: 022.6963 deg Mean motion: 14.80752007 rev/day Decay rate: 3.26e-06 rev/day^2 Epoch rev: 55564 Checksum: 320
Satellite: AO-16 Catalog number: 20439 Epoch time: 13045.55109192 Element set: 675 Inclination: 098.4603 deg RA of node: 348.5006 deg Eccentricity: 0.0011547 Arg of perigee: 156.8788 deg Mean anomaly: 319.2307 deg Mean motion: 14.32138546 rev/day Decay rate: 1.07e-06 rev/day^2 Epoch rev: 20468 Checksum: 305
Satellite: LO-19 Catalog number: 20442 Epoch time: 13045.87097205 Element set: 608 Inclination: 098.4286 deg RA of node: 350.9944 deg Eccentricity: 0.0012679 Arg of perigee: 147.6589 deg Mean anomaly: 245.8357 deg Mean motion: 14.32352058 rev/day Decay rate: 7.7e-07 rev/day^2 Epoch rev: 20492 Checksum: 332
Satellite: AO-27 Catalog number: 22825 Epoch time: 13045.44890972 Element set: 313 Inclination: 098.6060 deg RA of node: 350.8555 deg Eccentricity: 0.0007245 Arg of perigee: 290.2257 deg Mean anomaly: 182.0863 deg Mean motion: 14.29533283 rev/day Decay rate: 8.6e-07 rev/day^2 Epoch rev: 1109 Checksum: 300
Satellite: IO-26 Catalog number: 22826 Epoch time: 13045.87732510 Element set: 70 Inclination: 098.6002 deg RA of node: 351.5917 deg Eccentricity: 0.0007785 Arg of perigee: 281.3012 deg Mean anomaly: 111.8139 deg Mean motion: 14.29814235 rev/day Decay rate: 8.3e-07 rev/day^2 Epoch rev: 1128 Checksum: 278
Satellite: GO-32 Catalog number: 25397 Epoch time: 13044.66506822 Element set: 998 Inclination: 098.3967 deg RA of node: 017.8979 deg Eccentricity: 0.0000625 Arg of perigee: 346.2003 deg Mean anomaly: 013.9143 deg Mean motion: 14.23322042 rev/day Decay rate: 1.13e-06 rev/day^2 Epoch rev: 75837 Checksum: 307
Satellite: NO-44 Catalog number: 26931 Epoch time: 13045.69243941 Element set: 259 Inclination: 067.0506 deg RA of node: 215.2804 deg Eccentricity: 0.0005098 Arg of perigee: 275.6111 deg Mean anomaly: 084.4391 deg Mean motion: 14.29887370 rev/day Decay rate: 5.5e-07 rev/day^2 Epoch rev: 59391 Checksum: 313
Satellite: SO-50 Catalog number: 27607 Epoch time: 13045.13985620 Element set: 992 Inclination: 064.5576 deg RA of node: 278.6958 deg Eccentricity: 0.0061959 Arg of perigee: 197.2545 deg Mean anomaly: 162.6454 deg Mean motion: 14.72761591 rev/day Decay rate: 2.70e-06 rev/day^2 Epoch rev: 54559 Checksum: 353
Satellite: CO-55 Catalog number: 27844 Epoch time: 13045.06157587 Element set: 579 Inclination: 098.7036 deg RA of node: 055.9206 deg Eccentricity: 0.0008936 Arg of perigee: 240.2402 deg Mean anomaly: 152.7707 deg Mean motion: 14.21158441 rev/day Decay rate: 1.72e-06 rev/day^2 Epoch rev: 49924 Checksum: 316
Satellite: CO-57 Catalog number: 27848 Epoch time: 13045.55361748 Element set: 527 Inclination: 098.7122 deg RA of node: 055.8542 deg Eccentricity: 0.0008798 Arg of perigee: 244.8150 deg Mean anomaly: 261.3419 deg Mean motion: 14.20892258 rev/day Decay rate: 1.31e-06 rev/day^2 Epoch rev: 49924 Checksum: 331
Satellite: AO-51 Catalog number: 28375 Epoch time: 13045.48247090 Element set: 486 Inclination: 098.1827 deg RA of node: 005.9693 deg Eccentricity: 0.0084521 Arg of perigee: 027.6945 deg Mean anomaly: 332.8716 deg Mean motion: 14.41066479 rev/day Decay rate: 1.28e-06 rev/day^2 Epoch rev: 45366 Checksum: 333
Satellite: CP3 Catalog number: 31129 Epoch time: 13044.95741190 Element set: 390 Inclination: 097.8890 deg RA of node: 044.6117 deg Eccentricity: 0.0101618 Arg of perigee: 090.8750 deg Mean anomaly: 270.4090 deg Mean motion: 14.53456740 rev/day Decay rate: 4.95e-06 rev/day^2 Epoch rev: 30909 Checksum: 298
Satellite: CO-65 Catalog number: 32785 Epoch time: 13045.78298456 Element set: 552 Inclination: 097.7680 deg RA of node: 106.7369 deg Eccentricity: 0.0013752 Arg of perigee: 354.0287 deg Mean anomaly: 127.4294 deg Mean motion: 14.83583224 rev/day Decay rate: 7.67e-06 rev/day^2 Epoch rev: 25972 Checksum: 350
Satellite: PRISM Catalog number: 33493 Epoch time: 13045.70129966 Element set: 535 Inclination: 098.1993 deg RA of node: 198.7772 deg Eccentricity: 0.0017649 Arg of perigee: 228.8088 deg Mean anomaly: 131.1601 deg Mean motion: 14.85260550 rev/day Decay rate: 2.064e-05 rev/day^2 Epoch rev: 21973 Checksum: 322
Satellite: SOHLA-1 Catalog number: 33496 Epoch time: 13045.49343696 Element set: 969 Inclination: 098.1210 deg RA of node: 161.9461 deg Eccentricity: 0.0006109 Arg of perigee: 003.1336 deg Mean anomaly: 058.2568 deg Mean motion: 14.70186648 rev/day Decay rate: 2.82e-06 rev/day^2 Epoch rev: 21784 Checksum: 311
Satellite: SO-67 Catalog number: 35870 Epoch time: 13045.78559830 Element set: 793 Inclination: 097.2057 deg RA of node: 078.9299 deg Eccentricity: 0.0003435 Arg of perigee: 056.1913 deg Mean anomaly: 031.8513 deg Mean motion: 15.25911555 rev/day Decay rate: 3.147e-05 rev/day^2 Epoch rev: 18958 Checksum: 342
Satellite: TISAT-1 Catalog number: 36799 Epoch time: 13045.79828958 Element set: 807 Inclination: 098.0416 deg RA of node: 129.7817 deg Eccentricity: 0.0015842 Arg of perigee: 104.9710 deg Mean anomaly: 255.3262 deg Mean motion: 14.82851940 rev/day Decay rate: 1.206e-05 rev/day^2 Epoch rev: 14043 Checksum: 321
Satellite: STUDSAT Catalog number: 36801 Epoch time: 13045.34927044 Element set: 587 Inclination: 098.0557 deg RA of node: 131.4591 deg Eccentricity: 0.0012876 Arg of perigee: 089.0891 deg Mean anomaly: 271.1798 deg Mean motion: 14.86903249 rev/day Decay rate: 3.763e-05 rev/day^2 Epoch rev: 14047 Checksum: 325
Satellite: FO-69 Catalog number: 37227 Epoch time: 13045.33495598 Element set: 0063 Inclination: 071.9720 deg RA of node: 137.5012 deg Eccentricity: 0.0018430 Arg of perigee: 232.1163 deg Mean anomaly: 127.8338 deg Mean motion: 14.77371033 rev/day Decay rate: 3.60e-06 rev/day^2 Epoch rev: 01076 Checksum: 284
Satellite: FO-70 Catalog number: 37380 Epoch time: 13045.44967663 Element set: 0066 Inclination: 071.9760 deg RA of node: 138.1184 deg Eccentricity: 0.0018858 Arg of perigee: 229.0458 deg Mean anomaly: 130.9040 deg Mean motion: 14.77112726 rev/day Decay rate: 3.28e-06 rev/day^2 Epoch rev: 01085 Checksum: 306
Satellite: ALMASAT-1 Catalog number: 38078 Epoch time: 13045.69689672 Element set: 4 Inclination: 069.4842 deg RA of node: 123.9282 deg Eccentricity: 0.0721644 Arg of perigee: 302.9055 deg Mean anomaly: 050.4650 deg Mean motion: 14.18938415 rev/day Decay rate: 1.4609e-04 rev/day^2 Epoch rev: 5183 Checksum: 314
Satellite: XATCOBEO Catalog number: 38082 Epoch time: 13045.62641471 Element set: 922 Inclination: 069.4845 deg RA of node: 110.5331 deg Eccentricity: 0.0641416 Arg of perigee: 295.5047 deg Mean anomaly: 058.1150 deg Mean motion: 14.39935857 rev/day Decay rate: 4.5859e-04 rev/day^2 Epoch rev: 5219 Checksum: 311
/EX SB KEPS @ AMSAT $ORB13045.W Orbital Elements 13045.WEATHER
HR AMSAT ORBITAL ELEMENTS FOR WEATHER SATELLITES FROM WA5QGD FORT WORTH,TX February 14, 2013 BID: ORB13045.W TO ALL RADIO AMATEURS BT
Satellite: NOAA-10 Catalog number: 16969 Epoch time: 13045.11818765 Element set: 244 Inclination: 098.5588 deg RA of node: 075.5653 deg Eccentricity: 0.0011476 Arg of perigee: 242.4860 deg Mean anomaly: 185.6254 deg Mean motion: 14.27614294 rev/day Decay rate: 3.4e-07 rev/day^2 Epoch rev: 37438 Checksum: 325
Satellite: NOAA-11 Catalog number: 19531 Epoch time: 13045.48797667 Element set: 245 Inclination: 098.7165 deg RA of node: 131.3887 deg Eccentricity: 0.0010396 Arg of perigee: 248.7981 deg Mean anomaly: 183.5703 deg Mean motion: 14.15002567 rev/day Decay rate: -5.3e-07 rev/day^2 Epoch rev: 25877 Checksum: 331
